Regional Weather Roundup
Issued by NWS Albany, NY

Home | Current Version | Previous Version | Graphics & Text | Print | Product List | Glossary Off
Versions: 1 2 3 4 5 6 7 8 9 10 11 12 13 14 15 16 17 18 19 20 21 22 23 24 25 26 27 28 29 30 31 32 33 34 35 36 37 38 39 40 41 42 43 44 45 46 47 48 49 50

000
ASUS41 KALY 262310
RWRALY

NEW YORK STATE HOURLY WEATHER ROUNDUP
NATIONAL WEATHER SERVICE ALBANY NY
600 PM EST THU FEB 26 2015

NOTE: "FAIR" INDICATES FEW OR NO CLOUDS BELOW 12,000 FEET WITH NO
SIGNIFICANT WEATHER AND/OR NO OBSTRUCTIONS TO VISIBILITY.

NYZ032-033-038>043-046>054-057>066-NYZ062>081-270000-
EAST


CITY           SKY/WX    TMP DP  RH WIND       PRES   REMARKS
ALBANY         CLOUDY    17  -5  37 N7        30.07R WCI   8
GLENS FALLS    CLOUDY    14  -7  38 NE7       30.08R WCI   4
POUGHKEEPSIE   CLOUDY    21   9  59 N6        30.04R WCI  13
NEWBURGH       CLOUDY    19  10  68 N8        30.02R WCI   9
MONTGOMERY     CLOUDY    20  10  65 N7        30.01R WCI  11
WHITE PLAINS   CLOUDY    23  12  62 NW8       29.99R WCI  14
ISLIP          CLOUDY    26  14  60 N7        29.99R WCI  18
NEW YORK CITY  CLOUDY    25  14  63 N8        30.01R WCI  16
CENTRAL PARK   CLOUDY    26  12  55 N8        30.03R WCI  18
$$

NYZ005>009-017-018-044>046-055-056-270000-
CENTRAL


CITY           SKY/WX    TMP DP  RH WIND       PRES   REMARKS
FULTON         CLOUDY    10  -5  50 N9        30.12R WCI  -3
SYRACUSE       CLOUDY    14  -1  51 N15       30.11R WCI  -1
ROME           CLOUDY    15   1  53 W8        30.08R WCI   4
ELMIRA         CLOUDY    14   2  58 N13       30.05R WCI   0
BINGHAMTON     LGT SNOW  13   6  74 NW9       29.95R WCI   1
MONTICELLO     CLOUDY    19  16  86 NW12      29.95R WCI   7
$$

NYZ026>034-041>043-270000-
NORTH


CITY           SKY/WX    TMP DP  RH WIND       PRES   REMARKS
WATERTOWN      CLOUDY    11  -6  46 NE6       30.14R WCI   1
FORT DRUM      NOT AVBL
MASSENA        CLEAR      4 -13  45 W3        30.16R
SARANAC LAKE   PTCLDY     5 -10  50 VRB5      29.95R WCI  -4
PLATTSBURGH    CLEAR      6  -6  57 NE3       30.14R
$$

NYZ001>004-010>016-019>021-270000-
WEST


CITY           SKY/WX    TMP DP  RH WIND       PRES   REMARKS
NIAGARA FALLS  FLURRIES  12   5  73 NE9       30.13R WCI   0
BUFFALO        LGT SNOW  12   4  70 NE10      30.12R WCI  -1
DUNKIRK        CLOUDY    12   9  87 NW3       30.12R FOG
JAMESTOWN      CLOUDY     9   3  78 N8        30.00R WCI  -4
WELLSVILLE     CLOUDY    10   4  76 N6        29.94S WCI   0
ROCHESTER      LGT SNOW  12   5  73 N8        30.13R WCI   0
PENN YAN       CLOUDY    11   3  70 N5        30.07R HAZE    WCI   3
$$

             KEY
       WCI = WIND CHILL INDEX
       VSB = VISIBILITY
       HX  = HEAT INDEX
$$


USA.gov is the U.S. government's official web portal to all federal, state and local government web resources and services.